Miscellaneous Local Product
Issued by NWS Hastings, NE

Home | Current Version | Previous Version | Text Only | Print | Product List | Glossary On
Versions: 1 2 3 4 5 6 7 8 9 10 11 12 13 14 15 16 17 18 19 20 21 22 23 24 25 26 27 28 29 30 31 32 33 34 35 36 37 38 39 40 41 42 43 44 45 46 47 48 49 50
000
AXUS43 KGID 161302
MISGRI

GID CWA HOURLY WEATHER ROUNDUP
NATIONAL WEATHER SERVICE HASTINGS NE
800 AM CDT TUE SEP 16 2014

NOTE: "FAIR" INDICATES FEW OR NO CLOUDS BELOW 12,000 FEET WITH NO
SIGNIFICANT WEATHER AND/OR OBSTRUCTIONS TO VISIBILITY.

...SOUTH CENTRAL NEBRASKA...

CITY           SKY/WX    TMP DP  RH WIND       PRES   REMARKS
GRAND ISLAND   CLEAR     47  43  86 S7        30.23R
HASTINGS       CLEAR     45  41  86 S6        30.23R
KEARNEY        CLEAR     45  43  93 S12       30.21F
ORD            CLEAR     46  43  89 SE7       30.17F
YORK           LGT RAIN  45  45 100 S5        30.24R
AURORA         CLEAR     47  43  87 S6        30.23R
LEXINGTON      PTCLDY    51  48  90 S15       30.17F
HOLDREGE       PTCLDY    47  45  91 S8        30.20F
HEBRON         CLEAR     41  39  93 CALM      30.24S

...NEBRASKA PANHANDLE...

CITY           SKY/WX    TMP DP  RH WIND       PRES   REMARKS
CHADRON        PTCLDY    45  44  97 W7        30.06R FOG
ALLIANCE       PTCLDY    47  46  97 SW6       30.08R FOG
SCOTTSBLUFF    FOG       46  46 100 N7        30.09R VSB 3/4
SIDNEY         PTCLDY    50  48  93 S12       30.11F FOG

...WESTERN AND NORTH CENTRAL NEBRASKA...

CITY           SKY/WX    TMP DP  RH WIND       PRES   REMARKS
VALENTINE      CLEAR     50  44  80 S8        30.08S
AINSWORTH      CLEAR     47  42  82 S13       30.10S
ONEILL         CLEAR     47  45  91 S10       30.16F
BROKEN BOW     CLEAR     48  44  86 S10       30.16S
IMPERIAL       MOCLDY    52  50  93 E7        30.15F
NORTH PLATTE   PTCLDY    51  45  79 VRB6      30.15S
MCCOOK         CLOUDY    51  47  86 SE9       30.19F

...EASTERN NEBRASKA...

CITY           SKY/WX    TMP DP  RH WIND       PRES   REMARKS
NORFOLK        CLEAR     46  43  89 S9        30.21S
SO SIOUX CITY  PTCLDY    40  40 100 SE3       30.23S
TEKAMAH        FOG       41  40  96 CALM      30.23F VSB 1/2
ALBION         CLEAR     42  39  90 S3        30.21S
OMAHA EPPLEY   FOG       46  44  93 S5        30.25F VSB 1/4
OFFUTT AFB     FOG       43  43 100 CALM      30.24S VSB<1/4
MILLARD        CLEAR     44  43  96 SE3       30.24S
LINCOLN        CLEAR     42  40  92 CALM      30.24F
NEBRASKA CITY  CLEAR     44  43  95 SE3       30.25S
BEATRICE       CLEAR     41  40  95 CALM      30.24S
FALLS CITY     CLEAR     44  43  96 CALM      30.25S

...NORTHERN KANSAS...

CITY           SKY/WX    TMP DP  RH WIND       PRES   REMARKS
GOODLAND       CLOUDY    58  53  84 SW12      30.18S
HILL CITY      CLOUDY    52  48  86 NE3       30.22S
NORTON         CLOUDY    50  45  81 SE7       30.21R
PHILLIPSBURG   CLOUDY    46  46 100 E3        30.23S
SMITH CENTER   CLEAR     45  45 100 SE5       30.25R
BELOIT         CLEAR     43  43 100 CALM      30.24S
HAYS           CLOUDY    52  46  82 SE8       30.23S
RUSSELL        CLOUDY    51  49  92 SE7       30.22S
CONCORDIA      CLEAR     46  45  96 E5        30.24S
SALINA         CLEAR     50  47  89 CALM      30.25S
TOPEKA         CLEAR     48  47  96 NW3       30.26R



USA.gov is the U.S. government's official web portal to all federal, state and local government web resources and services.